Time,TemperatureF,DewpointF,PressureIn,WindDirection,WindDirectionDegrees,WindSpeedMPH,WindSpeedGustMPH,Humidity,HourlyPrecipIn,Conditions,Clouds,dailyrainin,SoftwareType,DateUTC
2013-02-15 00:00:00,45.3,38.2,30.10,East,87,0.0,0.0,76,0.00,,CLR,0.00,VWS V14.01,2013-02-15 06:00:00,
2013-02-15 00:05:00,45.6,38.5,30.11,East,88,0.0,0.0,76,0.00,,BKN110,0.00,VWS V14.01,2013-02-15 06:05:00,
2013-02-15 00:10:00,46.7,39.5,30.11,NNW,338,0.0,0.0,76,0.00,,BKN110,0.00,VWS V14.01,2013-02-15 06:10:00,
2013-02-15 00:15:00,47.2,39.7,30.11,NNW,338,0.0,0.0,75,0.00,,BKN110,0.00,VWS V14.01,2013-02-15 06:15:00,
2013-02-15 00:20:00,47.9,41.4,30.12,North,349,1.0,3.0,78,0.00,,BKN110,0.00,VWS V14.01,2013-02-15 06:20:00,
2013-02-15 00:25:00,49.4,42.5,30.13,NNW,337,0.0,5.0,77,0.00,,BKN110,0.00,VWS V14.01,2013-02-15 06:25:00,
2013-02-15 00:30:00,50.4,42.1,30.13,NNE,28,2.0,6.0,73,0.00,,BKN110,0.00,VWS V14.01,2013-02-15 06:30:00,
2013-02-15 00:35:00,51.1,40.9,30.13,NE,55,4.0,6.0,68,0.00,,BKN110,0.00,VWS V14.01,2013-02-15 06:35:00,
2013-02-15 00:40:00,51.5,40.5,30.14,NNW,330,4.0,7.0,66,0.00,,BKN110,0.00,VWS V14.01,2013-02-15 06:40:00,
2013-02-15 00:45:00,51.6,40.2,30.14,NNE,31,3.0,10.0,65,0.00,,BKN110,0.00,VWS V14.01,2013-02-15 06:45:00,
2013-02-15 00:50:00,51.5,39.7,30.15,NW,323,4.0,9.0,64,0.00,,BKN110,0.00,VWS V14.01,2013-02-15 06:50:00,
2013-02-15 00:55:00,51.6,39.4,30.15,NW,317,2.0,6.0,63,0.00,,BKN110,0.00,VWS V14.01,2013-02-15 06:55:00,
2013-02-15 01:00:00,51.5,38.9,30.15,North,11,3.0,6.0,62,0.00,,BKN110,0.00,VWS V14.01,2013-02-15 07:00:00,
2013-02-15 01:05:00,51.7,38.3,30.16,NNE,28,6.0,7.0,60,0.00,,BKN110,0.00,VWS V14.01,2013-02-15 07:05:00,
2013-02-15 01:10:00,51.8,37.9,30.16,NE,50,2.0,8.0,59,0.00,,BKN110,0.00,VWS V14.01,2013-02-15 07:10:00,
2013-02-15 01:15:00,51.8,37.9,30.17,North,360,1.0,7.0,59,0.00,,BKN110,0.00,VWS V14.01,2013-02-15 07:15:00,
2013-02-15 01:20:00,51.7,37.4,30.17,NNE,20,1.0,5.0,58,0.00,,BKN110,0.00,VWS V14.01,2013-02-15 07:20:00,
2013-02-15 01:25:00,51.6,37.3,30.17,NNE,16,2.0,7.0,58,0.00,,BKN110,0.00,VWS V14.01,2013-02-15 07:25:00,
2013-02-15 01:30:00,51.5,37.2,30.17,NNE,25,2.0,7.0,58,0.00,,BKN110,0.00,VWS V14.01,2013-02-15 07:30:00,
2013-02-15 01:35:00,51.4,36.7,30.18,ENE,65,4.0,8.0,57,0.00,,BKN110,0.00,VWS V14.01,2013-02-15 07:35:00,
2013-02-15 01:40:00,51.5,36.3,30.18,NNE,22,4.0,8.0,56,0.00,,BKN110,0.00,VWS V14.01,2013-02-15 07:40:00,
2013-02-15 01:45:00,51.5,36.8,30.18,NNW,337,2.0,8.0,57,0.00,,BKN110,0.00,VWS V14.01,2013-02-15 07:45:00,
2013-02-15 01:50:00,51.3,37.0,30.19,NNE,13,6.0,8.0,58,0.00,,BKN110,0.00,VWS V14.01,2013-02-15 07:50:00,
2013-02-15 01:55:00,51.5,36.3,30.19,NE,46,2.0,9.0,56,0.00,,BKN110,0.00,VWS V14.01,2013-02-15 07:55:00,
2013-02-15 02:00:00,51.5,36.8,30.19,NNW,330,2.0,7.0,57,0.00,,OVC110,0.00,VWS V14.01,2013-02-15 08:00:00,
2013-02-15 02:05:00,51.4,36.2,30.19,West,275,8.0,10.0,56,0.00,,OVC110,0.00,VWS V14.01,2013-02-15 08:05:00,
2013-02-15 02:10:00,51.5,36.3,30.19,NE,44,2.0,9.0,56,0.00,,OVC110,0.00,VWS V14.01,2013-02-15 08:10:00,
2013-02-15 02:15:00,51.4,36.2,30.19,NE,54,2.0,8.0,56,0.00,,OVC110,0.00,VWS V14.01,2013-02-15 08:15:00,
2013-02-15 02:20:00,51.2,36.1,30.19,NNW,348,2.0,9.0,56,0.00,,OVC110,0.00,VWS V14.01,2013-02-15 08:20:00,
2013-02-15 02:25:00,51.2,36.1,30.19,NNE,23,3.0,8.0,56,0.00,,OVC110,0.00,VWS V14.01,2013-02-15 08:25:00,
2013-02-15 02:30:00,51.3,36.2,30.19,NNE,25,3.0,7.0,56,0.00,,OVC110,0.00,VWS V14.01,2013-02-15 08:30:00,
2013-02-15 02:35:00,51.4,35.8,30.19,NNW,341,1.0,9.0,55,0.00,,OVC110,0.00,VWS V14.01,2013-02-15 08:35:00,
2013-02-15 02:40:00,51.4,36.2,30.19,NNE,18,4.0,8.0,56,0.00,,OVC110,0.00,VWS V14.01,2013-02-15 08:40:00,
2013-02-15 02:45:00,51.3,35.2,30.19,NW,314,4.0,15.0,54,0.00,,OVC110,0.00,VWS V14.01,2013-02-15 08:45:00,
2013-02-15 02:50:00,51.2,35.1,30.19,NNE,23,4.0,10.0,54,0.00,,OVC110,0.00,VWS V14.01,2013-02-15 08:50:00,
2013-02-15 02:55:00,51.1,35.5,30.19,NNE,32,4.0,9.0,55,0.00,,OVC110,0.00,VWS V14.01,2013-02-15 08:55:00,
2013-02-15 03:00:00,50.9,35.3,30.20,NNE,16,6.0,8.0,55,0.00,,BKN110,0.00,VWS V14.01,2013-02-15 09:00:00,
2013-02-15 03:05:00,50.8,35.2,30.20,North,349,1.0,8.0,55,0.00,,BKN110,0.00,VWS V14.01,2013-02-15 09:05:00,
2013-02-15 03:10:00,50.6,35.5,30.20,NNW,334,1.0,8.0,56,0.00,,BKN110,0.00,VWS V14.01,2013-02-15 09:10:00,
2013-02-15 03:15:00,50.5,35.4,30.19,NNE,20,3.0,9.0,56,0.00,,BKN110,0.00,VWS V14.01,2013-02-15 09:15:00,
2013-02-15 03:20:00,50.4,35.3,30.19,NE,42,3.0,9.0,56,0.00,,BKN110,0.00,VWS V14.01,2013-02-15 09:20:00,
2013-02-15 03:25:00,50.4,35.3,30.20,NW,326,2.0,7.0,56,0.00,,BKN110,0.00,VWS V14.01,2013-02-15 09:25:00,
2013-02-15 03:30:00,50.4,35.3,30.20,North,355,2.0,11.0,56,0.00,,BKN110,0.00,VWS V14.01,2013-02-15 09:30:00,
2013-02-15 03:35:00,50.3,35.2,30.20,NNE,30,7.0,8.0,56,0.00,,BKN110,0.00,VWS V14.01,2013-02-15 09:35:00,
2013-02-15 03:40:00,50.3,35.2,30.20,North,11,3.0,8.0,56,0.00,,BKN110,0.00,VWS V14.01,2013-02-15 09:40:00,
2013-02-15 03:45:00,50.3,34.8,30.20,NNE,20,3.0,10.0,55,0.00,,BKN110,0.00,VWS V14.01,2013-02-15 09:45:00,
2013-02-15 03:50:00,50.3,34.8,30.20,NNE,32,4.0,8.0,55,0.00,,BKN110,0.00,VWS V14.01,2013-02-15 09:50:00,
2013-02-15 03:55:00,50.1,35.0,30.20,NNE,30,6.0,9.0,56,0.00,,BKN110,0.00,VWS V14.01,2013-02-15 09:55:00,
2013-02-15 04:00:00,50.1,34.6,30.21,NNW,341,5.0,8.0,55,0.00,,BKN080,0.00,VWS V14.01,2013-02-15 10:00:00,
2013-02-15 04:05:00,50.1,34.6,30.21,NNE,31,2.0,10.0,55,0.00,,BKN080,0.00,VWS V14.01,2013-02-15 10:05:00,
2013-02-15 04:10:00,50.0,34.9,30.21,North,355,5.0,13.0,56,0.00,,BKN080,0.00,VWS V14.01,2013-02-15 10:10:00,
2013-02-15 04:15:00,50.0,34.9,30.21,NE,42,5.0,9.0,56,0.00,,BKN080,0.00,VWS V14.01,2013-02-15 10:15:00,
2013-02-15 04:20:00,49.8,35.2,30.21,WNW,303,2.0,6.0,57,0.00,,BKN080,0.00,VWS V14.01,2013-02-15 10:20:00,
2013-02-15 04:25:00,49.7,35.1,30.21,NNW,329,6.0,7.0,57,0.00,,BKN080,0.00,VWS V14.01,2013-02-15 10:25:00,
2013-02-15 04:30:00,49.6,35.0,30.21,NNE,32,3.0,7.0,57,0.00,,BKN080,0.00,VWS V14.01,2013-02-15 10:30:00,
2013-02-15 04:35:00,49.5,35.3,30.22,East,82,6.0,8.0,58,0.00,,BKN080,0.00,VWS V14.01,2013-02-15 10:35:00,
2013-02-15 04:40:00,49.4,35.3,30.21,NNW,337,1.0,7.0,58,0.00,,BKN080,0.00,VWS V14.01,2013-02-15 10:40:00,
2013-02-15 04:45:00,49.2,35.5,30.21,NNW,334,2.0,8.0,59,0.00,,BKN080,0.00,VWS V14.01,2013-02-15 10:45:00,
2013-02-15 04:50:00,49.0,35.7,30.21,NNW,341,4.0,5.0,60,0.00,,BKN080,0.00,VWS V14.01,2013-02-15 10:50:00,
2013-02-15 04:55:00,48.9,36.1,30.22,NNW,346,5.0,9.0,61,0.00,,BKN080,0.00,VWS V14.01,2013-02-15 10:55:00,
2013-02-15 05:00:00,48.8,36.0,30.22,NNE,24,2.0,8.0,61,0.00,,BKN080,0.00,VWS V14.01,2013-02-15 11:00:00,
2013-02-15 05:05:00,48.8,36.0,30.22,NNW,346,1.0,8.0,61,0.00,,BKN075,0.00,VWS V14.01,2013-02-15 11:05:00,
2013-02-15 05:10:00,48.8,36.4,30.23,NNW,329,2.0,8.0,62,0.00,,BKN075,0.00,VWS V14.01,2013-02-15 11:10:00,
2013-02-15 05:15:00,48.7,36.3,30.23,NE,53,6.0,18.0,62,0.00,,BKN075,0.00,VWS V14.01,2013-02-15 11:15:00,
2013-02-15 05:20:00,48.6,36.6,30.23,NNW,327,5.0,9.0,63,0.00,,BKN075,0.00,VWS V14.01,2013-02-15 11:20:00,
2013-02-15 05:25:00,48.5,36.9,30.24,NE,47,8.0,11.0,64,0.00,,BKN075,0.00,VWS V14.01,2013-02-15 11:25:00,
2013-02-15 05:30:00,48.4,36.8,30.24,NE,36,6.0,9.0,64,0.00,,BKN075,0.00,VWS V14.01,2013-02-15 11:30:00,
2013-02-15 05:35:00,48.3,36.7,30.24,NE,55,7.0,10.0,64,0.00,,BKN075,0.00,VWS V14.01,2013-02-15 11:35:00,
2013-02-15 05:40:00,48.2,36.6,30.25,NNW,338,3.0,12.0,64,0.00,,BKN075,0.00,VWS V14.01,2013-02-15 11:40:00,
2013-02-15 05:45:00,48.0,36.8,30.25,NNE,17,2.0,11.0,65,0.00,,BKN075,0.00,VWS V14.01,2013-02-15 11:45:00,
2013-02-15 05:50:00,47.9,37.1,30.25,NNE,23,5.0,9.0,66,0.00,,BKN075,0.00,VWS V14.01,2013-02-15 11:50:00,
2013-02-15 05:55:00,47.7,36.9,30.25,NE,47,8.0,10.0,66,0.00,,BKN075,0.00,VWS V14.01,2013-02-15 11:55:00,
2013-02-15 06:00:00,47.5,37.1,30.26,NNW,330,4.0,9.0,67,0.00,,BKN075,0.00,VWS V14.01,2013-02-15 12:00:00,
2013-02-15 06:05:00,47.4,37.0,30.26,ENE,65,4.0,10.0,67,0.00,,BKN075,0.00,VWS V14.01,2013-02-15 12:05:00,
2013-02-15 06:10:00,47.3,37.3,30.26,North,5,4.0,10.0,68,0.00,,BKN075,0.00,VWS V14.01,2013-02-15 12:10:00,
2013-02-15 06:15:00,47.2,37.2,30.26,NNW,330,6.0,11.0,68,0.00,,BKN075,0.00,VWS V14.01,2013-02-15 12:15:00,
2013-02-15 06:20:00,47.0,36.6,30.27,NE,46,4.0,9.0,67,0.00,,BKN075,0.00,VWS V14.01,2013-02-15 12:20:00,
2013-02-15 06:25:00,46.9,36.5,30.27,NNW,332,7.0,16.0,67,0.00,,BKN075,0.00,VWS V14.01,2013-02-15 12:25:00,
2013-02-15 06:30:00,46.8,36.4,30.27,North,11,3.0,10.0,67,0.00,,BKN075,0.00,VWS V14.01,2013-02-15 12:30:00,
2013-02-15 06:35:00,46.7,36.0,30.27,NW,319,4.0,10.0,66,0.00,,BKN075,0.00,VWS V14.01,2013-02-15 12:35:00,
2013-02-15 06:40:00,46.5,35.8,30.27,NNW,346,5.0,10.0,66,0.00,,BKN075,0.00,VWS V14.01,2013-02-15 12:40:00,
2013-02-15 06:45:00,46.5,35.8,30.27,NNW,337,5.0,9.0,66,0.00,,BKN075,0.00,VWS V14.01,2013-02-15 12:45:00,
2013-02-15 06:50:00,46.4,35.7,30.27,NNE,29,3.0,7.0,66,0.00,,BKN075,0.00,VWS V14.01,2013-02-15 12:50:00,
2013-02-15 06:55:00,46.3,35.2,30.28,NE,34,3.0,10.0,65,0.00,,BKN075,0.00,VWS V14.01,2013-02-15 12:55:00,
2013-02-15 07:00:00,46.2,35.1,30.28,NW,324,5.0,8.0,65,0.00,,BKN075,0.00,VWS V14.01,2013-02-15 13:00:00,
2013-02-15 07:05:00,46.1,35.0,30.28,NNW,337,6.0,10.0,65,0.00,,BKN080,0.00,VWS V14.01,2013-02-15 13:05:00,
2013-02-15 07:10:00,46.1,35.0,30.28,NNE,24,4.0,11.0,65,0.00,,BKN080,0.00,VWS V14.01,2013-02-15 13:10:00,
2013-02-15 07:15:00,46.0,35.3,30.29,NNE,20,3.0,5.0,66,0.00,,BKN080,0.00,VWS V14.01,2013-02-15 13:15:00,
2013-02-15 07:20:00,45.9,35.2,30.29,NNE,27,2.0,10.0,66,0.00,,BKN080,0.00,VWS V14.01,2013-02-15 13:20:00,
2013-02-15 07:25:00,45.8,35.5,30.29,NW,326,2.0,9.0,67,0.00,,BKN080,0.00,VWS V14.01,2013-02-15 13:25:00,
2013-02-15 07:30:00,45.7,36.1,30.29,North,5,9.0,9.0,69,0.00,,BKN080,0.00,VWS V14.01,2013-02-15 13:30:00,
2013-02-15 07:35:00,45.4,36.2,30.29,NW,319,4.0,11.0,70,0.00,,BKN080,0.00,VWS V14.01,2013-02-15 13:35:00,
2013-02-15 07:40:00,45.1,36.3,30.29,NNE,30,6.0,10.0,71,0.00,,BKN080,0.00,VWS V14.01,2013-02-15 13:40:00,
2013-02-15 07:45:00,45.0,36.5,30.29,WNW,300,3.0,5.0,72,0.00,,BKN080,0.00,VWS V14.01,2013-02-15 13:45:00,
2013-02-15 07:50:00,45.0,36.5,30.29,NNE,30,10.0,10.0,72,0.00,,BKN080,0.00,VWS V14.01,2013-02-15 13:50:00,
2013-02-15 07:55:00,45.1,36.3,30.30,NNE,31,6.0,9.0,71,0.00,,BKN080,0.00,VWS V14.01,2013-02-15 13:55:00,
2013-02-15 08:00:00,45.1,35.9,30.30,NNW,336,3.0,9.0,70,0.00,,BKN080,0.00,VWS V14.01,2013-02-15 14:00:00,
2013-02-15 08:05:00,45.1,35.9,30.30,NE,36,4.0,9.0,70,0.00,,OVC075,0.00,VWS V14.01,2013-02-15 14:05:00,
2013-02-15 08:10:00,45.1,35.9,30.30,NNE,20,2.0,10.0,70,0.00,,OVC075,0.00,VWS V14.01,2013-02-15 14:10:00,
2013-02-15 08:15:00,45.1,36.3,30.31,NNW,331,2.0,8.0,71,0.00,,OVC075,0.00,VWS V14.01,2013-02-15 14:15:00,
2013-02-15 08:20:00,45.1,36.3,30.31,NNW,347,2.0,5.0,71,0.00,,OVC075,0.00,VWS V14.01,2013-02-15 14:20:00,
2013-02-15 08:25:00,45.1,36.3,30.30,NNE,17,1.0,5.0,71,0.00,,OVC075,0.00,VWS V14.01,2013-02-15 14:25:00,
2013-02-15 08:30:00,45.1,36.6,30.31,NNE,22,5.0,8.0,72,0.00,,OVC075,0.00,VWS V14.01,2013-02-15 14:30:00,
2013-02-15 08:35:00,45.1,36.6,30.31,NNE,15,1.0,10.0,72,0.00,,OVC075,0.00,VWS V14.01,2013-02-15 14:35:00,
2013-02-15 08:40:00,45.1,36.6,30.31,NW,313,1.0,6.0,72,0.00,,OVC075,0.00,VWS V14.01,2013-02-15 14:40:00,
2013-02-15 08:45:00,45.1,36.6,30.31,NNE,27,3.0,7.0,72,0.00,,OVC075,0.00,VWS V14.01,2013-02-15 14:45:00,
2013-02-15 08:50:00,45.2,36.7,30.32,NNE,24,2.0,7.0,72,0.00,,OVC075,0.00,VWS V14.01,2013-02-15 14:50:00,
2013-02-15 08:55:00,45.2,36.7,30.32,NNE,24,3.0,5.0,72,0.00,,OVC075,0.00,VWS V14.01,2013-02-15 14:55:00,
2013-02-15 09:00:00,45.2,36.7,30.32,NE,36,3.0,5.0,72,0.00,,OVC075,0.00,VWS V14.01,2013-02-15 15:00:00,
2013-02-15 09:05:00,45.2,36.7,30.32,NNW,342,2.0,7.0,72,0.00,,OVC080,0.00,VWS V14.01,2013-02-15 15:05:00,
2013-02-15 09:10:00,45.2,36.7,30.32,NW,323,2.0,5.0,72,0.00,,OVC080,0.00,VWS V14.01,2013-02-15 15:10:00,
2013-02-15 09:15:00,45.2,36.4,30.32,NNW,348,2.0,5.0,71,0.00,,OVC080,0.00,VWS V14.01,2013-02-15 15:15:00,
2013-02-15 09:20:00,45.3,36.1,30.33,NNE,22,2.0,4.0,70,0.00,,OVC080,0.00,VWS V14.01,2013-02-15 15:20:00,
2013-02-15 09:25:00,45.5,35.6,30.33,NNW,345,1.0,7.0,68,0.00,,OVC080,0.00,VWS V14.01,2013-02-15 15:25:00,
2013-02-15 09:30:00,45.6,34.1,30.33,NNW,344,4.0,10.0,64,0.00,,OVC080,0.00,VWS V14.01,2013-02-15 15:30:00,
2013-02-15 09:35:00,45.6,33.8,30.33,WNW,303,2.0,7.0,63,0.00,,OVC080,0.00,VWS V14.01,2013-02-15 15:35:00,
2013-02-15 09:40:00,45.7,33.4,30.33,NNE,29,2.0,7.0,62,0.00,,OVC080,0.00,VWS V14.01,2013-02-15 15:40:00,
2013-02-15 09:45:00,45.8,33.5,30.34,NNE,23,1.0,6.0,62,0.00,,OVC080,0.00,VWS V14.01,2013-02-15 15:45:00,
2013-02-15 09:50:00,45.8,32.7,30.34,North,11,2.0,8.0,60,0.00,,OVC080,0.00,VWS V14.01,2013-02-15 15:50:00,
2013-02-15 09:55:00,45.8,31.9,30.34,North,351,6.0,10.0,58,0.00,,OVC080,0.00,VWS V14.01,2013-02-15 15:55:00,
2013-02-15 10:00:00,45.8,32.7,30.35,NNE,20,3.0,6.0,60,0.00,,OVC080,0.00,VWS V14.01,2013-02-15 16:00:00,
2013-02-15 10:05:00,45.8,33.5,30.35,NW,313,6.0,8.0,62,0.00,,OVC075,0.00,VWS V14.01,2013-02-15 16:05:00,
2013-02-15 10:10:00,45.7,33.0,30.35,NNW,344,3.0,9.0,61,0.00,,OVC075,0.00,VWS V14.01,2013-02-15 16:10:00,
2013-02-15 10:15:00,45.7,32.6,30.35,WNW,299,2.0,8.0,60,0.00,,OVC075,0.00,VWS V14.01,2013-02-15 16:15:00,
2013-02-15 10:20:00,45.7,31.8,30.35,North,5,3.0,9.0,58,0.00,,OVC075,0.00,VWS V14.01,2013-02-15 16:20:00,
2013-02-15 10:25:00,45.7,30.5,30.36,NNE,29,5.0,9.0,55,0.00,,OVC075,0.00,VWS V14.01,2013-02-15 16:25:00,
2013-02-15 10:30:00,45.7,29.6,30.36,NE,36,2.0,11.0,53,0.00,,OVC075,0.00,VWS V14.01,2013-02-15 16:30:00,
2013-02-15 10:35:00,45.7,27.1,30.36,ENE,65,7.0,13.0,48,0.00,,OVC075,0.00,VWS V14.01,2013-02-15 16:35:00,
2013-02-15 10:40:00,45.6,26.5,30.36,WNW,294,2.0,10.0,47,0.00,,OVC075,0.00,VWS V14.01,2013-02-15 16:40:00,
2013-02-15 10:45:00,45.7,29.1,30.36,NNW,346,4.0,6.0,52,0.00,,OVC075,0.00,VWS V14.01,2013-02-15 16:45:00,
2013-02-15 10:50:00,45.7,30.5,30.36,NNE,20,1.0,10.0,55,0.00,,OVC075,0.00,VWS V14.01,2013-02-15 16:50:00,
2013-02-15 10:55:00,45.8,30.6,30.36,NE,55,5.0,5.0,55,0.00,,OVC075,0.00,VWS V14.01,2013-02-15 16:55:00,
2013-02-15 11:00:00,45.9,32.4,30.36,NE,34,3.0,8.0,59,0.00,,OVC075,0.00,VWS V14.01,2013-02-15 17:00:00,
2013-02-15 11:05:00,45.8,32.3,30.37,NW,319,3.0,9.0,59,0.00,,OVC065,0.00,VWS V14.01,2013-02-15 17:05:00,
2013-02-15 11:10:00,45.8,32.3,30.37,NNW,346,3.0,7.0,59,0.00,,OVC065,0.00,VWS V14.01,2013-02-15 17:10:00,
2013-02-15 11:15:00,45.9,32.4,30.37,ENE,71,0.0,6.0,59,0.00,,OVC065,0.00,VWS V14.01,2013-02-15 17:15:00,
2013-02-15 11:20:00,46.1,32.2,30.37,NE,34,4.0,6.0,58,0.00,,OVC065,0.00,VWS V14.01,2013-02-15 17:20:00,
2013-02-15 11:25:00,46.1,32.2,30.37,WNW,293,3.0,9.0,58,0.00,,OVC065,0.00,VWS V14.01,2013-02-15 17:25:00,
2013-02-15 11:30:00,45.9,31.5,30.37,NNE,28,3.0,8.0,57,0.00,,OVC065,0.00,VWS V14.01,2013-02-15 17:30:00,
2013-02-15 11:35:00,45.6,31.3,30.37,ENE,57,3.0,7.0,57,0.00,,OVC065,0.00,VWS V14.01,2013-02-15 17:35:00,
2013-02-15 11:40:00,45.6,30.4,30.37,NE,35,4.0,8.0,55,0.00,,OVC065,0.00,VWS V14.01,2013-02-15 17:40:00,
2013-02-15 11:45:00,45.5,30.3,30.37,NE,39,2.0,8.0,55,0.00,,OVC065,0.00,VWS V14.01,2013-02-15 17:45:00,
2013-02-15 11:50:00,45.7,30.5,30.36,NNW,338,2.0,8.0,55,0.00,,OVC065,0.00,VWS V14.01,2013-02-15 17:50:00,
2013-02-15 11:55:00,45.9,28.3,30.36,NNE,28,5.0,8.0,50,0.00,,OVC065,0.00,VWS V14.01,2013-02-15 17:55:00,
2013-02-15 12:00:00,45.9,27.8,30.36,North,349,1.0,8.0,49,0.00,,BKN070,0.00,VWS V14.01,2013-02-15 18:00:00,
2013-02-15 12:05:00,45.9,27.3,30.36,North,11,4.0,8.0,48,0.00,,BKN070,0.00,VWS V14.01,2013-02-15 18:05:00,
2013-02-15 12:10:00,46.0,27.9,30.36,North,11,4.0,8.0,49,0.00,,BKN070,0.00,VWS V14.01,2013-02-15 18:10:00,
2013-02-15 12:15:00,46.1,28.0,30.36,NE,38,4.0,8.0,49,0.00,,BKN070,0.00,VWS V14.01,2013-02-15 18:15:00,
2013-02-15 12:20:00,46.3,26.1,30.36,NNE,24,6.0,11.0,45,0.00,,BKN070,0.00,VWS V14.01,2013-02-15 18:20:00,
2013-02-15 12:25:00,46.4,26.2,30.36,NW,319,2.0,9.0,45,0.00,,BKN070,0.00,VWS V14.01,2013-02-15 18:25:00,
2013-02-15 12:30:00,46.5,25.8,30.36,NE,36,8.0,10.0,44,0.00,,BKN070,0.00,VWS V14.01,2013-02-15 18:30:00,
2013-02-15 12:35:00,46.6,26.9,30.35,NNE,15,2.0,7.0,46,0.00,,BKN070,0.00,VWS V14.01,2013-02-15 18:35:00,
2013-02-15 12:40:00,46.9,26.1,30.35,NE,34,7.0,9.0,44,0.00,,BKN070,0.00,VWS V14.01,2013-02-15 18:40:00,
2013-02-15 12:45:00,46.6,25.9,30.35,NNE,19,3.0,11.0,44,0.00,,BKN070,0.00,VWS V14.01,2013-02-15 18:45:00,
2013-02-15 12:50:00,46.8,26.0,30.35,NE,36,5.0,13.0,44,0.00,,BKN070,0.00,VWS V14.01,2013-02-15 18:50:00,
2013-02-15 12:55:00,46.8,25.5,30.35,NNE,20,3.0,9.0,43,0.00,,BKN070,0.00,VWS V14.01,2013-02-15 18:55:00,
2013-02-15 13:00:00,46.9,25.6,30.34,NNE,32,6.0,9.0,43,0.00,,BKN070,0.00,VWS V14.01,2013-02-15 19:00:00,
2013-02-15 13:05:00,47.4,25.5,30.34,NNE,31,5.0,11.0,42,0.00,,BKN085,0.00,VWS V14.01,2013-02-15 19:05:00,
2013-02-15 13:10:00,47.9,25.4,30.34,NNE,15,3.0,7.0,41,0.00,,BKN085,0.00,VWS V14.01,2013-02-15 19:10:00,
2013-02-15 13:15:00,47.9,25.9,30.34,NNW,344,2.0,10.0,42,0.00,,BKN085,0.00,VWS V14.01,2013-02-15 19:15:00,
2013-02-15 13:20:00,48.3,24.5,30.34,NNE,22,3.0,9.0,39,0.00,,BKN085,0.00,VWS V14.01,2013-02-15 19:20:00,
2013-02-15 13:25:00,48.7,25.5,30.33,NNW,338,6.0,10.0,40,0.00,,BKN085,0.00,VWS V14.01,2013-02-15 19:25:00,
2013-02-15 13:30:00,48.6,24.2,30.33,NNW,327,7.0,10.0,38,0.00,,BKN085,0.00,VWS V14.01,2013-02-15 19:30:00,
2013-02-15 13:35:00,48.9,24.4,30.33,NE,38,4.0,10.0,38,0.00,,BKN085,0.00,VWS V14.01,2013-02-15 19:35:00,
2013-02-15 13:40:00,49.0,24.5,30.33,NE,47,5.0,7.0,38,0.00,,BKN085,0.00,VWS V14.01,2013-02-15 19:40:00,
2013-02-15 13:45:00,49.3,25.4,30.32,NNE,12,3.0,9.0,39,0.00,,BKN085,0.00,VWS V14.01,2013-02-15 19:45:00,
2013-02-15 13:50:00,49.3,25.4,30.32,NE,34,3.0,8.0,39,0.00,,BKN085,0.00,VWS V14.01,2013-02-15 19:50:00,
2013-02-15 13:55:00,49.7,25.8,30.32,NNE,13,5.0,10.0,39,0.00,,BKN085,0.00,VWS V14.01,2013-02-15 19:55:00,
2013-02-15 14:00:00,49.6,25.0,30.32,NNE,12,4.0,6.0,38,0.00,,BKN085,0.00,VWS V14.01,2013-02-15 20:00:00,
2013-02-15 14:05:00,50.0,26.0,30.32,NNE,22,4.0,8.0,39,0.00,,BKN090,0.00,VWS V14.01,2013-02-15 20:05:00,
2013-02-15 14:10:00,50.1,25.5,30.32,North,5,3.0,7.0,38,0.00,,BKN090,0.00,VWS V14.01,2013-02-15 20:10:00,
2013-02-15 14:15:00,50.3,26.3,30.32,NE,54,3.0,8.0,39,0.00,,BKN090,0.00,VWS V14.01,2013-02-15 20:15:00,
2013-02-15 14:20:00,50.5,27.1,30.31,NW,319,2.0,8.0,40,0.00,,BKN090,0.00,VWS V14.01,2013-02-15 20:20:00,
2013-02-15 14:25:00,51.5,25.5,30.32,North,351,4.0,8.0,36,0.00,,BKN090,0.00,VWS V14.01,2013-02-15 20:25:00,
2013-02-15 14:30:00,51.4,24.7,30.31,NNW,334,6.0,9.0,35,0.00,,BKN090,0.00,VWS V14.01,2013-02-15 20:30:00,
2013-02-15 14:35:00,51.2,25.2,30.31,NNE,18,3.0,7.0,36,0.00,,BKN090,0.00,VWS V14.01,2013-02-15 20:35:00,
2013-02-15 14:40:00,50.8,24.1,30.31,NNW,345,7.0,10.0,35,0.00,,BKN090,0.00,VWS V14.01,2013-02-15 20:40:00,
2013-02-15 14:45:00,50.4,23.1,30.31,NW,321,5.0,10.0,34,0.00,,BKN090,0.00,VWS V14.01,2013-02-15 20:45:00,
2013-02-15 14:50:00,50.2,22.9,30.31,NE,42,8.0,8.0,34,0.00,,BKN090,0.00,VWS V14.01,2013-02-15 20:50:00,
2013-02-15 14:55:00,50.3,23.0,30.31,North,360,2.0,7.0,34,0.00,,BKN090,0.00,VWS V14.01,2013-02-15 20:55:00,
2013-02-15 15:00:00,50.3,23.7,30.31,NNW,339,2.0,7.0,35,0.00,,BKN230,0.00,VWS V14.01,2013-02-15 21:00:00,
2013-02-15 15:05:00,50.5,23.2,30.31,NE,44,8.0,13.0,34,0.00,,BKN230,0.00,VWS V14.01,2013-02-15 21:05:00,
2013-02-15 15:10:00,50.6,17.9,30.31,NNW,348,1.0,9.0,27,0.00,,BKN230,0.00,VWS V14.01,2013-02-15 21:10:00,
2013-02-15 15:15:00,50.3,18.5,30.31,ENE,76,4.0,10.0,28,0.00,,BKN230,0.00,VWS V14.01,2013-02-15 21:15:00,
2013-02-15 15:20:00,50.4,20.9,30.31,NNE,31,6.0,7.0,31,0.00,,BKN230,0.00,VWS V14.01,2013-02-15 21:20:00,
2013-02-15 15:25:00,50.4,21.7,30.31,NNW,346,4.0,9.0,32,0.00,,BKN230,0.00,VWS V14.01,2013-02-15 21:25:00,
2013-02-15 15:30:00,50.3,23.0,30.31,ENE,61,2.0,8.0,34,0.00,,BKN230,0.00,VWS V14.01,2013-02-15 21:30:00,
2013-02-15 15:35:00,50.3,23.0,30.31,NE,40,3.0,7.0,34,0.00,,BKN230,0.00,VWS V14.01,2013-02-15 21:35:00,
2013-02-15 15:40:00,50.4,23.8,30.30,NNE,20,4.0,6.0,35,0.00,,BKN230,0.00,VWS V14.01,2013-02-15 21:40:00,
2013-02-15 15:45:00,50.2,21.5,30.31,NNE,20,3.0,6.0,32,0.00,,BKN230,0.00,VWS V14.01,2013-02-15 21:45:00,
2013-02-15 15:50:00,49.9,21.2,30.30,NNE,20,2.0,7.0,32,0.00,,BKN230,0.00,VWS V14.01,2013-02-15 21:50:00,
2013-02-15 15:55:00,49.8,21.1,30.31,NE,40,5.0,9.0,32,0.00,,BKN230,0.00,VWS V14.01,2013-02-15 21:55:00,
2013-02-15 16:00:00,49.6,21.0,30.31,ENE,58,4.0,7.0,32,0.00,,BKN230,0.00,VWS V14.01,2013-02-15 22:00:00,
2013-02-15 16:05:00,49.5,20.9,30.31,NNE,32,4.0,7.0,32,0.00,,BKN230,0.00,VWS V14.01,2013-02-15 22:05:00,
2013-02-15 16:10:00,49.4,20.8,30.31,WNW,295,2.0,8.0,32,0.00,,BKN230,0.00,VWS V14.01,2013-02-15 22:10:00,
2013-02-15 16:15:00,49.6,21.7,30.31,ENE,71,1.0,7.0,33,0.00,,BKN230,0.00,VWS V14.01,2013-02-15 22:15:00,
2013-02-15 16:20:00,49.5,21.6,30.31,NE,40,4.0,8.0,33,0.00,,BKN230,0.00,VWS V14.01,2013-02-15 22:20:00,
2013-02-15 16:25:00,49.4,22.2,30.31,NE,34,6.0,7.0,34,0.00,,BKN230,0.00,VWS V14.01,2013-02-15 22:25:00,
2013-02-15 16:30:00,49.3,21.4,30.31,NW,317,2.0,7.0,33,0.00,,BKN230,0.00,VWS V14.01,2013-02-15 22:30:00,
2013-02-15 16:35:00,49.2,19.1,30.31,North,5,7.0,10.0,30,0.00,,BKN230,0.00,VWS V14.01,2013-02-15 22:35:00,
2013-02-15 16:40:00,49.2,19.9,30.31,NNE,12,4.0,9.0,31,0.00,,BKN230,0.00,VWS V14.01,2013-02-15 22:40:00,
2013-02-15 16:45:00,49.2,19.9,30.32,NNW,338,2.0,5.0,31,0.00,,BKN230,0.00,VWS V14.01,2013-02-15 22:45:00,
2013-02-15 16:50:00,49.1,19.8,30.31,NNE,15,0.0,5.0,31,0.00,,BKN230,0.00,VWS V14.01,2013-02-15 22:50:00,
2013-02-15 16:55:00,48.9,19.6,30.31,NNE,15,3.0,5.0,31,0.00,,BKN230,0.00,VWS V14.01,2013-02-15 22:55:00,
2013-02-15 17:00:00,48.8,19.5,30.32,NNE,26,3.0,7.0,31,0.00,,BKN230,0.00,VWS V14.01,2013-02-15 23:00:00,
2013-02-15 17:06:00,48.8,20.3,30.31,NNW,331,5.0,9.0,32,0.00,,BKN230,0.00,VWS V14.01,2013-02-15 23:06:00,
2013-02-15 17:11:00,48.8,20.3,30.31,NNE,30,2.0,9.0,32,0.00,,BKN230,0.00,VWS V14.01,2013-02-15 23:11:00,
2013-02-15 17:16:00,48.7,20.2,30.31,NE,36,3.0,10.0,32,0.00,,BKN230,0.00,VWS V14.01,2013-02-15 23:16:00,
2013-02-15 17:21:00,48.6,20.8,30.32,NE,49,2.0,5.0,33,0.00,,BKN230,0.00,VWS V14.01,2013-02-15 23:21:00,
2013-02-15 17:26:00,48.5,20.7,30.32,NNW,348,6.0,6.0,33,0.00,,BKN230,0.00,VWS V14.01,2013-02-15 23:26:00,
2013-02-15 17:31:00,48.4,20.6,30.32,North,5,3.0,8.0,33,0.00,,BKN230,0.00,VWS V14.01,2013-02-15 23:31:00,
2013-02-15 17:36:00,48.2,20.5,30.32,NNE,31,2.0,8.0,33,0.00,,BKN230,0.00,VWS V14.01,2013-02-15 23:36:00,
2013-02-15 17:41:00,48.1,20.4,30.32,WSW,256,1.0,9.0,33,0.00,,BKN230,0.00,VWS V14.01,2013-02-15 23:41:00,
2013-02-15 17:46:00,47.9,20.2,30.32,NNE,26,1.0,6.0,33,0.00,,BKN230,0.00,VWS V14.01,2013-02-15 23:46:00,
2013-02-15 17:51:00,47.6,19.9,30.32,NNW,328,1.0,7.0,33,0.00,,BKN230,0.00,VWS V14.01,2013-02-15 23:51:00,
2013-02-15 17:56:00,47.4,19.8,30.33,NNW,347,2.0,7.0,33,0.00,,BKN230,0.00,VWS V14.01,2013-02-15 23:56:00,
2013-02-15 18:01:00,47.2,20.3,30.33,NNW,344,4.0,4.0,34,0.00,,SCT230,0.00,VWS V14.01,2013-02-16 00:01:00,
2013-02-15 18:06:00,47.1,20.2,30.33,NNE,32,4.0,9.0,34,0.00,,SCT230,0.00,VWS V14.01,2013-02-16 00:06:00,
2013-02-15 18:11:00,46.9,20.7,30.33,ENE,58,2.0,6.0,35,0.00,,SCT230,0.00,VWS V14.01,2013-02-16 00:11:00,
2013-02-15 18:16:00,46.7,20.5,30.33,North,11,1.0,4.0,35,0.00,,SCT230,0.00,VWS V14.01,2013-02-16 00:16:00,
2013-02-15 18:21:00,46.6,21.1,30.33,North,5,1.0,4.0,36,0.00,,SCT230,0.00,VWS V14.01,2013-02-16 00:21:00,
2013-02-15 18:26:00,46.5,21.0,30.33,NNE,26,0.0,3.0,36,0.00,,SCT230,0.00,VWS V14.01,2013-02-16 00:26:00,
2013-02-15 18:31:00,46.3,20.8,30.34,West,279,4.0,9.0,36,0.00,,SCT230,0.00,VWS V14.01,2013-02-16 00:31:00,
2013-02-15 18:36:00,46.3,20.8,30.34,NNW,329,0.0,5.0,36,0.00,,SCT230,0.00,VWS V14.01,2013-02-16 00:36:00,
2013-02-15 18:41:00,46.1,20.6,30.34,NE,49,1.0,1.0,36,0.00,,SCT230,0.00,VWS V14.01,2013-02-16 00:41:00,
2013-02-15 18:46:00,46.0,21.2,30.34,NE,39,2.0,4.0,37,0.00,,SCT230,0.00,VWS V14.01,2013-02-16 00:46:00,
2013-02-15 18:51:00,45.9,21.1,30.34,NNW,347,0.0,7.0,37,0.00,,SCT230,0.00,VWS V14.01,2013-02-16 00:51:00,
2013-02-15 18:56:00,45.7,20.9,30.34,WNW,290,3.0,6.0,37,0.00,,SCT230,0.00,VWS V14.01,2013-02-16 00:56:00,
2013-02-15 19:01:00,45.6,20.9,30.35,NNE,22,0.0,4.0,37,0.00,,SCT230,0.00,VWS V14.01,2013-02-16 01:01:00,
2013-02-15 19:06:00,45.4,21.3,30.35,NNE,27,0.0,2.0,38,0.00,,SCT230,0.00,VWS V14.01,2013-02-16 01:06:00,
2013-02-15 19:11:00,45.3,21.2,30.35,NNE,22,6.0,6.0,38,0.00,,SCT230,0.00,VWS V14.01,2013-02-16 01:11:00,
2013-02-15 19:16:00,45.3,21.8,30.35,NNE,15,0.0,6.0,39,0.00,,SCT230,0.00,VWS V14.01,2013-02-16 01:16:00,
2013-02-15 19:21:00,45.1,21.6,30.35,NNW,337,1.0,2.0,39,0.00,,SCT230,0.00,VWS V14.01,2013-02-16 01:21:00,
2013-02-15 19:26:00,45.0,21.5,30.35,NNE,13,2.0,4.0,39,0.00,,SCT230,0.00,VWS V14.01,2013-02-16 01:26:00,
2013-02-15 19:31:00,44.9,21.5,30.36,NW,326,1.0,4.0,39,0.00,,SCT230,0.00,VWS V14.01,2013-02-16 01:31:00,
2013-02-15 19:36:00,44.9,20.9,30.36,WNW,286,2.0,4.0,38,0.00,,SCT230,0.00,VWS V14.01,2013-02-16 01:36:00,
2013-02-15 19:41:00,44.8,20.8,30.36,NNW,337,0.0,6.0,38,0.00,,SCT230,0.00,VWS V14.01,2013-02-16 01:41:00,
2013-02-15 19:46:00,44.7,20.7,30.36,NW,310,3.0,5.0,38,0.00,,SCT230,0.00,VWS V14.01,2013-02-16 01:46:00,
2013-02-15 19:51:00,44.7,20.7,30.36,NNE,22,1.0,5.0,38,0.00,,SCT230,0.00,VWS V14.01,2013-02-16 01:51:00,
2013-02-15 19:56:00,44.4,21.0,30.36,NNE,26,1.0,3.0,39,0.00,,SCT230,0.00,VWS V14.01,2013-02-16 01:56:00,
2013-02-15 20:01:00,44.1,21.3,30.36,NNW,337,2.0,2.0,40,0.00,,FEW150,0.00,VWS V14.01,2013-02-16 02:01:00,
2013-02-15 20:06:00,43.9,21.2,30.36,NW,308,0.0,2.0,40,0.00,,FEW150,0.00,VWS V14.01,2013-02-16 02:06:00,
2013-02-15 20:11:00,43.5,20.8,30.36,NNE,16,0.0,1.0,40,0.00,,FEW150,0.00,VWS V14.01,2013-02-16 02:11:00,
2013-02-15 20:16:00,43.2,21.7,30.36,NNW,340,0.0,1.0,42,0.00,,FEW150,0.00,VWS V14.01,2013-02-16 02:16:00,
2013-02-15 20:21:00,42.9,21.4,30.37,NNW,340,0.0,0.0,42,0.00,,FEW150,0.00,VWS V14.01,2013-02-16 02:21:00,
2013-02-15 20:26:00,42.4,21.5,30.36,NNW,340,0.0,1.0,43,0.00,,FEW150,0.00,VWS V14.01,2013-02-16 02:26:00,
2013-02-15 20:31:00,42.0,21.7,30.36,NNW,340,0.0,0.0,44,0.00,,FEW150,0.00,VWS V14.01,2013-02-16 02:31:00,
2013-02-15 20:36:00,41.2,21.5,30.37,NNW,340,0.0,0.0,45,0.00,,FEW150,0.00,VWS V14.01,2013-02-16 02:36:00,
2013-02-15 20:41:00,40.5,21.9,30.37,NNW,340,0.0,0.0,47,0.00,,FEW150,0.00,VWS V14.01,2013-02-16 02:41:00,
2013-02-15 20:46:00,39.9,22.3,30.37,NNW,340,0.0,0.0,49,0.00,,FEW150,0.00,VWS V14.01,2013-02-16 02:46:00,
2013-02-15 20:51:00,39.5,22.9,30.38,NNW,340,0.0,0.0,51,0.00,,FEW150,0.00,VWS V14.01,2013-02-16 02:51:00,
2013-02-15 20:56:00,39.3,23.2,30.38,NNW,340,0.0,0.0,52,0.00,,FEW150,0.00,VWS V14.01,2013-02-16 02:56:00,
2013-02-15 21:01:00,38.9,23.2,30.38,NNW,340,0.0,0.0,53,0.00,,FEW150,0.00,VWS V14.01,2013-02-16 03:01:00,
2013-02-15 21:06:00,38.3,22.7,30.38,NNW,340,0.0,0.0,53,0.00,,SCT180,0.00,VWS V14.01,2013-02-16 03:06:00,
2013-02-15 21:11:00,37.7,23.0,30.38,NNW,340,0.0,0.0,55,0.00,,SCT180,0.00,VWS V14.01,2013-02-16 03:11:00,
2013-02-15 21:16:00,37.2,23.0,30.38,NNW,340,0.0,0.0,56,0.00,,SCT180,0.00,VWS V14.01,2013-02-16 03:16:00,
2013-02-15 21:21:00,37.1,23.7,30.39,NNW,340,0.0,0.0,58,0.00,,SCT180,0.00,VWS V14.01,2013-02-16 03:21:00,
2013-02-15 21:26:00,37.0,23.2,30.39,NNW,340,0.0,0.0,57,0.00,,SCT180,0.00,VWS V14.01,2013-02-16 03:26:00,
2013-02-15 21:31:00,36.6,22.8,30.39,NNW,340,0.0,0.0,57,0.00,,SCT180,0.00,VWS V14.01,2013-02-16 03:31:00,
2013-02-15 21:36:00,36.0,23.1,30.39,NNW,340,0.0,0.0,59,0.00,,SCT180,0.00,VWS V14.01,2013-02-16 03:36:00,
2013-02-15 21:41:00,35.7,23.6,30.39,NNW,340,0.0,0.0,61,0.00,,SCT180,0.00,VWS V14.01,2013-02-16 03:41:00,
2013-02-15 21:46:00,35.5,23.4,30.40,NNW,340,0.0,0.0,61,0.00,,SCT180,0.00,VWS V14.01,2013-02-16 03:46:00,
2013-02-15 21:51:00,35.2,23.1,30.39,NNW,340,0.0,0.0,61,0.00,,SCT180,0.00,VWS V14.01,2013-02-16 03:51:00,
2013-02-15 21:56:00,34.9,22.8,30.39,NNW,340,0.0,0.0,61,0.00,,SCT180,0.00,VWS V14.01,2013-02-16 03:56:00,
2013-02-15 22:01:00,35.0,23.7,30.39,NNW,340,0.0,0.0,63,0.00,,FEW180,0.00,VWS V14.01,2013-02-16 04:01:00,
2013-02-15 22:06:00,35.3,23.6,30.39,NNW,340,0.0,0.0,62,0.00,,FEW180,0.00,VWS V14.01,2013-02-16 04:06:00,
2013-02-15 22:11:00,35.5,23.8,30.39,NNW,340,0.0,0.0,62,0.00,,FEW180,0.00,VWS V14.01,2013-02-16 04:11:00,
2013-02-15 22:16:00,35.5,23.8,30.39,NNW,340,0.0,0.0,62,0.00,,FEW180,0.00,VWS V14.01,2013-02-16 04:16:00,
2013-02-15 22:21:00,35.3,23.6,30.39,NNW,340,0.0,0.0,62,0.00,,FEW180,0.00,VWS V14.01,2013-02-16 04:21:00,
2013-02-15 22:26:00,34.8,23.5,30.39,NNW,340,0.0,0.0,63,0.00,,FEW180,0.00,VWS V14.01,2013-02-16 04:26:00,
2013-02-15 22:31:00,34.2,23.3,30.39,NNW,341,0.0,0.0,64,0.00,,FEW180,0.00,VWS V14.01,2013-02-16 04:31:00,
2013-02-15 22:36:00,33.7,23.2,30.39,NNW,340,0.0,0.0,65,0.00,,FEW180,0.00,VWS V14.01,2013-02-16 04:36:00,
2013-02-15 22:41:00,33.5,23.4,30.38,NNW,340,0.0,0.0,66,0.00,,FEW180,0.00,VWS V14.01,2013-02-16 04:41:00,
2013-02-15 22:46:00,33.7,23.6,30.38,NNW,341,0.0,0.0,66,0.00,,FEW180,0.00,VWS V14.01,2013-02-16 04:46:00,
2013-02-15 22:51:00,33.6,23.1,30.39,NNW,340,0.0,0.0,65,0.00,,FEW180,0.00,VWS V14.01,2013-02-16 04:51:00,
2013-02-15 22:56:00,33.3,23.2,30.38,NNW,340,0.0,0.0,66,0.00,,FEW180,0.00,VWS V14.01,2013-02-16 04:56:00,
2013-02-15 23:00:00,33.3,23.5,30.38,NNW,340,0.0,0.0,67,0.00,,CLR,0.00,VWS V14.01,2013-02-16 05:00:00,
2013-02-15 23:05:00,33.4,23.6,30.38,NNW,340,0.0,0.0,67,0.00,,CLR,0.00,VWS V14.01,2013-02-16 05:05:00,
2013-02-15 23:10:00,33.1,23.4,30.38,NNW,340,0.0,0.0,67,0.00,,CLR,0.00,VWS V14.01,2013-02-16 05:10:00,
2013-02-15 23:15:00,32.8,23.4,30.38,NNW,340,0.0,0.0,68,0.00,,CLR,0.00,VWS V14.01,2013-02-16 05:15:00,
2013-02-15 23:21:00,32.5,23.5,30.38,NNW,340,0.0,0.0,69,0.00,,CLR,0.00,VWS V14.01,2013-02-16 05:21:00,
2013-02-15 23:23:00,32.4,23.4,30.38,NNW,340,0.0,0.0,69,0.00,,CLR,0.00,VWS V14.01,2013-02-16 05:23:00,
2013-02-15 23:28:00,32.6,23.9,30.39,NNW,340,0.0,0.0,70,0.00,,CLR,0.00,VWS V14.01,2013-02-16 05:28:00,
2013-02-15 23:33:00,33.0,23.6,30.39,NNW,340,0.0,0.0,68,0.00,,CLR,0.00,VWS V14.01,2013-02-16 05:33:00,
2013-02-15 23:38:00,33.0,23.2,30.39,NNW,340,0.0,0.0,67,0.00,,CLR,0.00,VWS V14.01,2013-02-16 05:38:00,
2013-02-15 23:43:00,32.8,23.4,30.40,NNW,340,0.0,0.0,68,0.00,,CLR,0.00,VWS V14.01,2013-02-16 05:43:00,
2013-02-15 23:48:00,32.5,23.1,30.40,NNW,340,0.0,0.0,68,0.00,,CLR,0.00,VWS V14.01,2013-02-16 05:48:00,
2013-02-15 23:53:00,32.2,23.2,30.40,NNW,340,0.0,0.0,69,0.00,,CLR,0.00,VWS V14.01,2013-02-16 05:53:00,
2013-02-15 23:58:00,32.0,23.0,30.40,NNW,340,0.0,0.0,69,0.00,,CLR,0.00,VWS V14.01,2013-02-16 05:58:00,